Time,TemperatureF,DewpointF,PressureIn,WindDirection,WindDirectionDegrees,WindSpeedMPH,WindSpeedGustMPH,Humidity,HourlyPrecipIn,Conditions,Clouds,dailyrainin,SoftwareType,DateUTC
2013-07-03 00:00:00,61.7,56.8,30.10,SE,142,0.0,0.0,84,0.00,,CLR,0.00,VWS V14.01,2013-07-03 07:00:00,
2013-07-03 00:05:00,61.4,56.9,30.10,ESE,117,0.0,0.0,85,0.00,,CLR,0.00,VWS V14.01,2013-07-03 07:05:00,
2013-07-03 00:10:00,61.2,56.7,30.10,ESE,122,1.0,0.0,85,0.00,,CLR,0.00,VWS V14.01,2013-07-03 07:10:00,
2013-07-03 00:15:00,61.1,56.6,30.10,ESE,111,1.0,0.0,85,0.00,,CLR,0.00,VWS V14.01,2013-07-03 07:15:00,
2013-07-03 00:16:00,61.0,56.5,30.10,ESE,111,2.0,0.0,85,0.00,,CLR,0.00,VWS V14.01,2013-07-03 07:16:00,
2013-07-03 00:21:00,61.0,56.5,30.11,ESE,117,2.0,0.0,85,0.00,,CLR,0.00,VWS V14.01,2013-07-03 07:21:00,
2013-07-03 00:26:00,61.0,56.5,30.11,SW,234,2.0,0.0,85,0.00,,CLR,0.00,VWS V14.01,2013-07-03 07:26:00,
2013-07-03 00:31:00,61.0,56.5,30.11,ESE,115,0.0,0.0,85,0.00,,CLR,0.00,VWS V14.01,2013-07-03 07:31:00,
2013-07-03 00:36:00,60.8,56.3,30.11,ESE,109,2.0,0.0,85,0.00,,CLR,0.00,VWS V14.01,2013-07-03 07:36:00,
2013-07-03 00:38:00,60.8,56.3,30.11,ESE,105,3.0,0.0,85,0.00,,CLR,0.00,VWS V14.01,2013-07-03 07:38:00,
2013-07-03 00:43:00,60.8,56.3,30.11,ESE,123,2.0,0.0,85,0.00,,CLR,0.00,VWS V14.01,2013-07-03 07:43:00,
2013-07-03 00:48:00,60.6,56.1,30.11,SSE,149,0.0,0.0,85,0.00,,CLR,0.00,VWS V14.01,2013-07-03 07:48:00,
2013-07-03 00:50:00,60.6,56.1,30.11,SW,217,0.0,0.0,85,0.00,,CLR,0.00,VWS V14.01,2013-07-03 07:50:00,
2013-07-03 00:55:00,60.4,55.9,30.11,East,90,0.0,0.0,85,0.00,,CLR,0.00,VWS V14.01,2013-07-03 07:55:00,
2013-07-03 01:00:00,60.3,55.8,30.11,ESE,118,0.0,0.0,85,0.00,,CLR,0.00,VWS V14.01,2013-07-03 08:00:00,
2013-07-03 01:01:00,60.3,55.8,30.11,SE,128,0.0,0.0,85,0.00,,CLR,0.00,VWS V14.01,2013-07-03 08:01:00,
2013-07-03 01:06:00,60.3,55.8,30.11,ESE,122,2.0,0.0,85,0.00,,CLR,0.00,VWS V14.01,2013-07-03 08:06:00,
2013-07-03 01:09:00,60.2,55.7,30.11,East,99,0.0,0.0,85,0.00,,CLR,0.00,VWS V14.01,2013-07-03 08:09:00,
2013-07-03 01:14:00,60.1,55.6,30.11,ESE,110,3.0,0.0,85,0.00,,CLR,0.00,VWS V14.01,2013-07-03 08:14:00,
2013-07-03 01:18:00,60.1,55.6,30.11,ESE,111,1.0,0.0,85,0.00,,CLR,0.00,VWS V14.01,2013-07-03 08:18:00,
2013-07-03 01:23:00,60.0,55.5,30.11,SE,133,2.0,0.0,85,0.00,,CLR,0.00,VWS V14.01,2013-07-03 08:23:00,
2013-07-03 01:28:00,59.9,55.4,30.11,ESE,111,0.0,0.0,85,0.00,,CLR,0.00,VWS V14.01,2013-07-03 08:28:00,
2013-07-03 01:33:00,59.7,55.5,30.12,ESE,110,0.0,0.0,86,0.00,,CLR,0.00,VWS V14.01,2013-07-03 08:33:00,
2013-07-03 01:38:00,59.5,55.3,30.12,ESE,111,0.0,0.0,86,0.00,,CLR,0.00,VWS V14.01,2013-07-03 08:38:00,
2013-07-03 01:39:00,59.4,55.2,30.12,ESE,110,0.0,0.0,86,0.00,,CLR,0.00,VWS V14.01,2013-07-03 08:39:00,
2013-07-03 01:44:00,59.3,55.1,30.12,East,98,0.0,0.0,86,0.00,,CLR,0.00,VWS V14.01,2013-07-03 08:44:00,
2013-07-03 01:45:00,59.2,55.0,30.12,East,98,2.0,0.0,86,0.00,,CLR,0.00,VWS V14.01,2013-07-03 08:45:00,
2013-07-03 01:50:00,59.3,55.1,30.12,ESE,116,0.0,0.0,86,0.00,,CLR,0.00,VWS V14.01,2013-07-03 08:50:00,
2013-07-03 01:54:00,59.2,55.0,30.13,ESE,115,1.0,0.0,86,0.00,,CLR,0.00,VWS V14.01,2013-07-03 08:54:00,
2013-07-03 01:55:00,59.1,54.9,30.13,ESE,116,0.0,0.0,86,0.00,,CLR,0.00,VWS V14.01,2013-07-03 08:55:00,
2013-07-03 02:00:00,59.0,54.8,30.13,ESE,107,3.0,0.0,86,0.00,,CLR,0.00,VWS V14.01,2013-07-03 09:00:00,
2013-07-03 02:05:00,58.9,54.7,30.13,ESE,109,0.0,0.0,86,0.00,,CLR,0.00,VWS V14.01,2013-07-03 09:05:00,
2013-07-03 02:10:00,58.7,54.5,30.13,ESE,118,0.0,0.0,86,0.00,,CLR,0.00,VWS V14.01,2013-07-03 09:10:00,
2013-07-03 02:15:00,58.5,54.3,30.13,ESE,119,0.0,0.0,86,0.00,,CLR,0.00,VWS V14.01,2013-07-03 09:15:00,
2013-07-03 02:20:00,58.1,54.3,30.13,ESE,115,0.0,0.0,87,0.00,,CLR,0.00,VWS V14.01,2013-07-03 09:20:00,
2013-07-03 02:25:00,57.9,54.1,30.13,ESE,103,1.0,0.0,87,0.00,,CLR,0.00,VWS V14.01,2013-07-03 09:25:00,
2013-07-03 02:30:00,57.7,53.9,30.13,East,82,0.0,0.0,87,0.00,,CLR,0.00,VWS V14.01,2013-07-03 09:30:00,
2013-07-03 02:35:00,57.5,53.7,30.13,East,82,0.0,0.0,87,0.00,,CLR,0.00,VWS V14.01,2013-07-03 09:35:00,
2013-07-03 02:40:00,57.2,53.4,30.13,East,82,0.0,0.0,87,0.00,,CLR,0.00,VWS V14.01,2013-07-03 09:40:00,
2013-07-03 02:41:00,57.2,53.4,30.13,East,82,0.0,0.0,87,0.00,,CLR,0.00,VWS V14.01,2013-07-03 09:41:00,
2013-07-03 02:46:00,57.0,53.5,30.13,East,82,0.0,0.0,88,0.00,,CLR,0.00,VWS V14.01,2013-07-03 09:46:00,
2013-07-03 02:49:00,56.8,53.0,30.12,East,82,0.0,0.0,87,0.00,,CLR,0.00,VWS V14.01,2013-07-03 09:49:00,
2013-07-03 02:50:00,56.8,53.3,30.13,East,82,0.0,0.0,88,0.00,,CLR,0.00,VWS V14.01,2013-07-03 09:50:00,
2013-07-03 02:55:00,56.5,53.0,30.13,East,82,0.0,0.0,88,0.00,,CLR,0.00,VWS V14.01,2013-07-03 09:55:00,
2013-07-03 03:00:00,56.3,52.8,30.12,East,82,0.0,0.0,88,0.00,,CLR,0.00,VWS V14.01,2013-07-03 10:00:00,
2013-07-03 03:04:00,56.2,52.7,30.12,East,82,0.0,0.0,88,0.00,,CLR,0.00,VWS V14.01,2013-07-03 10:04:00,
2013-07-03 03:05:00,56.1,52.6,30.12,East,82,0.0,0.0,88,0.00,,CLR,0.00,VWS V14.01,2013-07-03 10:05:00,
2013-07-03 03:10:00,55.8,52.3,30.12,East,82,0.0,0.0,88,0.00,,CLR,0.00,VWS V14.01,2013-07-03 10:10:00,
2013-07-03 03:15:00,55.9,52.7,30.12,East,92,0.0,0.0,89,0.00,,CLR,0.00,VWS V14.01,2013-07-03 10:15:00,
2013-07-03 03:20:00,56.1,52.9,30.12,East,99,0.0,0.0,89,0.00,,CLR,0.00,VWS V14.01,2013-07-03 10:20:00,
2013-07-03 03:25:00,56.3,53.1,30.13,ESE,106,1.0,0.0,89,0.00,,CLR,0.00,VWS V14.01,2013-07-03 10:25:00,
2013-07-03 03:30:00,56.8,53.3,30.12,ESE,114,0.0,0.0,88,0.00,,CLR,0.00,VWS V14.01,2013-07-03 10:30:00,
2013-07-03 03:31:00,56.9,53.1,30.12,ESE,106,1.0,0.0,87,0.00,,CLR,0.00,VWS V14.01,2013-07-03 10:31:00,
2013-07-03 03:36:00,56.9,53.1,30.13,WSW,245,0.0,0.0,87,0.00,,CLR,0.00,VWS V14.01,2013-07-03 10:36:00,
2013-07-03 03:41:00,56.8,53.0,30.13,East,84,0.0,0.0,87,0.00,,CLR,0.00,VWS V14.01,2013-07-03 10:41:00,
2013-07-03 03:46:00,56.6,52.8,30.13,East,83,0.0,0.0,87,0.00,,CLR,0.00,VWS V14.01,2013-07-03 10:46:00,
2013-07-03 03:49:00,56.6,52.8,30.13,East,88,0.0,0.0,87,0.00,,CLR,0.00,VWS V14.01,2013-07-03 10:49:00,
2013-07-03 03:54:00,56.4,52.9,30.13,East,88,0.0,0.0,88,0.00,,CLR,0.00,VWS V14.01,2013-07-03 10:54:00,
2013-07-03 03:55:00,56.4,52.9,30.13,East,88,0.0,0.0,88,0.00,,CLR,0.00,VWS V14.01,2013-07-03 10:55:00,
2013-07-03 03:57:00,56.3,52.8,30.13,East,88,0.0,0.0,88,0.00,,CLR,0.00,VWS V14.01,2013-07-03 10:57:00,
2013-07-03 04:02:00,56.2,52.7,30.13,East,96,0.0,0.0,88,0.00,,CLR,0.00,VWS V14.01,2013-07-03 11:02:00,
2013-07-03 04:07:00,56.2,52.7,30.13,East,96,0.0,0.0,88,0.00,,CLR,0.00,VWS V14.01,2013-07-03 11:07:00,
2013-07-03 04:08:00,56.1,52.6,30.13,East,96,0.0,0.0,88,0.00,,CLR,0.00,VWS V14.01,2013-07-03 11:08:00,
2013-07-03 04:09:00,56.1,52.6,30.14,East,94,0.0,0.0,88,0.00,,CLR,0.00,VWS V14.01,2013-07-03 11:09:00,
2013-07-03 04:14:00,56.0,52.5,30.14,ESE,103,0.0,0.0,88,0.00,,CLR,0.00,VWS V14.01,2013-07-03 11:14:00,
2013-07-03 04:19:00,55.9,52.7,30.14,ESE,104,0.0,0.0,89,0.00,,CLR,0.00,VWS V14.01,2013-07-03 11:19:00,
2013-07-03 04:23:00,55.9,52.4,30.14,ESE,104,0.0,0.0,88,0.00,,CLR,0.00,VWS V14.01,2013-07-03 11:23:00,
2013-07-03 04:25:00,55.9,52.4,30.14,ESE,103,0.0,0.0,88,0.00,,CLR,0.00,VWS V14.01,2013-07-03 11:25:00,
2013-07-03 04:30:00,55.7,52.2,30.15,ESE,104,0.0,0.0,88,0.00,,CLR,0.00,VWS V14.01,2013-07-03 11:30:00,
2013-07-03 04:35:00,55.3,51.8,30.15,ESE,104,0.0,0.0,88,0.00,,CLR,0.00,VWS V14.01,2013-07-03 11:35:00,
2013-07-03 04:40:00,55.0,51.8,30.15,ESE,104,0.0,0.0,89,0.00,,CLR,0.00,VWS V14.01,2013-07-03 11:40:00,
2013-07-03 04:45:00,54.7,51.5,30.15,ESE,104,0.0,0.0,89,0.00,,CLR,0.00,VWS V14.01,2013-07-03 11:45:00,
2013-07-03 04:50:00,54.2,51.0,30.15,ESE,104,0.0,0.0,89,0.00,,CLR,0.00,VWS V14.01,2013-07-03 11:50:00,
2013-07-03 04:55:00,53.9,50.7,30.15,ESE,104,0.0,0.0,89,0.00,,CLR,0.00,VWS V14.01,2013-07-03 11:55:00,
2013-07-03 04:59:00,53.9,51.0,30.16,ESE,104,0.0,0.0,90,0.00,,CLR,0.00,VWS V14.01,2013-07-03 11:59:00,
2013-07-03 05:03:00,54.0,51.1,30.15,ESE,104,0.0,0.0,90,0.00,,CLR,0.00,VWS V14.01,2013-07-03 12:03:00,
2013-07-03 05:08:00,53.8,50.9,30.15,ESE,104,0.0,0.0,90,0.00,,CLR,0.00,VWS V14.01,2013-07-03 12:08:00,
2013-07-03 05:12:00,53.5,50.9,30.16,ESE,104,0.0,0.0,91,0.00,,CLR,0.00,VWS V14.01,2013-07-03 12:12:00,
2013-07-03 05:16:00,53.5,50.9,30.15,ESE,104,0.0,0.0,91,0.00,,CLR,0.00,VWS V14.01,2013-07-03 12:16:00,
2013-07-03 05:20:00,53.5,50.9,30.15,ESE,104,0.0,0.0,91,0.00,,CLR,0.00,VWS V14.01,2013-07-03 12:20:00,
2013-07-03 05:25:00,53.4,50.8,30.15,ESE,104,0.0,0.0,91,0.00,,CLR,0.00,VWS V14.01,2013-07-03 12:25:00,
2013-07-03 05:30:00,53.4,50.8,30.15,ESE,104,0.0,0.0,91,0.00,,CLR,0.00,VWS V14.01,2013-07-03 12:30:00,
2013-07-03 05:35:00,53.3,50.7,30.16,ESE,104,0.0,0.0,91,0.00,,CLR,0.00,VWS V14.01,2013-07-03 12:35:00,
2013-07-03 05:40:00,53.4,51.1,30.16,ESE,106,0.0,0.0,92,0.00,,CLR,0.00,VWS V14.01,2013-07-03 12:40:00,
2013-07-03 05:45:00,53.4,50.8,30.15,ESE,106,0.0,0.0,91,0.00,,CLR,0.00,VWS V14.01,2013-07-03 12:45:00,
2013-07-03 05:48:00,53.4,51.1,30.15,ESE,106,0.0,0.0,92,0.00,,CLR,0.00,VWS V14.01,2013-07-03 12:48:00,
2013-07-03 05:53:00,53.5,51.2,30.16,ESE,107,0.0,0.0,92,0.00,,CLR,0.00,VWS V14.01,2013-07-03 12:53:00,
2013-07-03 05:58:00,53.6,51.3,30.15,ESE,106,0.0,0.0,92,0.00,,CLR,0.00,VWS V14.01,2013-07-03 12:58:00,
2013-07-03 06:03:00,53.7,51.1,30.15,ESE,106,0.0,0.0,91,0.00,,CLR,0.00,VWS V14.01,2013-07-03 13:03:00,
2013-07-03 06:08:00,53.7,51.1,30.15,ESE,106,1.0,0.0,91,0.00,,CLR,0.00,VWS V14.01,2013-07-03 13:08:00,
2013-07-03 06:13:00,54.0,51.4,30.15,ESE,106,0.0,0.0,91,0.00,,CLR,0.00,VWS V14.01,2013-07-03 13:13:00,
2013-07-03 06:18:00,54.3,51.7,30.15,East,99,0.0,0.0,91,0.00,,CLR,0.00,VWS V14.01,2013-07-03 13:18:00,
2013-07-03 06:23:00,54.7,51.8,30.15,East,100,0.0,0.0,90,0.00,,CLR,0.00,VWS V14.01,2013-07-03 13:23:00,
2013-07-03 06:25:00,54.8,51.9,30.15,East,100,0.0,0.0,90,0.00,,CLR,0.00,VWS V14.01,2013-07-03 13:25:00,
2013-07-03 06:30:00,55.1,52.2,30.15,East,99,0.0,0.0,90,0.00,,CLR,0.00,VWS V14.01,2013-07-03 13:30:00,
2013-07-03 06:35:00,55.4,52.2,30.16,East,96,0.0,0.0,89,0.00,,CLR,0.00,VWS V14.01,2013-07-03 13:35:00,
2013-07-03 06:37:00,55.5,52.3,30.16,ESE,105,0.0,0.0,89,0.00,,CLR,0.00,VWS V14.01,2013-07-03 13:37:00,
2013-07-03 19:17:00,70.2,54.8,30.07,SE,130,1.0,0.0,58,0.00,,CLR,0.00,VWS V14.01,2013-07-04 02:17:00,
2013-07-03 19:22:00,70.4,54.9,30.07,SE,142,2.0,0.0,58,0.00,,CLR,0.00,VWS V14.01,2013-07-04 02:22:00,
2013-07-03 19:27:00,69.9,54.5,30.07,ESE,118,10.0,0.0,58,0.00,,CLR,0.00,VWS V14.01,2013-07-04 02:27:00,
2013-07-03 19:32:00,69.4,54.5,30.08,SE,126,6.0,0.0,59,0.00,,CLR,0.00,VWS V14.01,2013-07-04 02:32:00,
2013-07-03 19:37:00,69.0,54.5,30.08,East,101,9.0,0.0,60,0.00,,CLR,0.00,VWS V14.01,2013-07-04 02:37:00,
2013-07-03 19:42:00,68.6,54.6,30.08,ENE,78,7.0,0.0,61,0.00,,CLR,0.00,VWS V14.01,2013-07-04 02:42:00,
2013-07-03 19:47:00,68.4,54.4,30.07,East,88,5.0,0.0,61,0.00,,CLR,0.00,VWS V14.01,2013-07-04 02:47:00,
2013-07-03 19:52:00,68.0,54.5,30.08,ESE,105,7.0,0.0,62,0.00,,CLR,0.00,VWS V14.01,2013-07-04 02:52:00,
2013-07-03 19:58:00,67.8,54.8,30.08,ESE,106,16.0,0.0,63,0.00,,CLR,0.00,VWS V14.01,2013-07-04 02:58:00,
2013-07-03 20:03:00,67.7,54.7,30.08,SSW,195,2.0,0.0,63,0.00,,CLR,0.00,VWS V14.01,2013-07-04 03:03:00,
2013-07-03 20:08:00,67.5,54.9,30.08,ESE,110,9.0,0.0,64,0.00,,CLR,0.00,VWS V14.01,2013-07-04 03:08:00,
2013-07-03 20:13:00,67.3,55.2,30.08,East,98,3.0,0.0,65,0.00,,CLR,0.00,VWS V14.01,2013-07-04 03:13:00,
2013-07-03 20:18:00,67.0,54.9,30.08,SE,142,2.0,0.0,65,0.00,,CLR,0.00,VWS V14.01,2013-07-04 03:18:00,
2013-07-03 20:23:00,66.5,54.8,30.08,ESE,103,5.0,0.0,66,0.00,,CLR,0.00,VWS V14.01,2013-07-04 03:23:00,
2013-07-03 20:28:00,65.7,54.5,30.08,ESE,111,4.0,0.0,67,0.00,,CLR,0.00,VWS V14.01,2013-07-04 03:28:00,
2013-07-03 20:33:00,65.1,54.7,30.08,ESE,116,4.0,0.0,69,0.00,,CLR,0.00,VWS V14.01,2013-07-04 03:33:00,
2013-07-03 20:38:00,64.7,54.7,30.09,East,90,4.0,0.0,70,0.00,,CLR,0.00,VWS V14.01,2013-07-04 03:38:00,
2013-07-03 20:43:00,64.2,54.6,30.09,ESE,102,9.0,0.0,71,0.00,,CLR,0.00,VWS V14.01,2013-07-04 03:43:00,
2013-07-03 20:48:00,63.8,54.2,30.09,East,101,7.0,0.0,71,0.00,,CLR,0.00,VWS V14.01,2013-07-04 03:48:00,
2013-07-03 20:53:00,63.4,54.2,30.09,SE,146,1.0,0.0,72,0.00,,CLR,0.00,VWS V14.01,2013-07-04 03:53:00,
2013-07-03 20:58:00,63.2,54.8,30.10,SE,138,2.0,0.0,74,0.00,,CLR,0.00,VWS V14.01,2013-07-04 03:58:00,
2013-07-03 21:01:00,62.9,54.5,30.10,ESE,105,3.0,0.0,74,0.00,,CLR,0.00,VWS V14.01,2013-07-04 04:01:00,
2013-07-03 21:06:00,62.6,54.6,30.10,ESE,116,3.0,0.0,75,0.00,,CLR,0.00,VWS V14.01,2013-07-04 04:06:00,
2013-07-03 21:11:00,62.3,54.7,30.10,ESE,113,5.0,0.0,76,0.00,,CLR,0.00,VWS V14.01,2013-07-04 04:11:00,
2013-07-03 21:16:00,62.0,54.4,30.10,ESE,103,7.0,0.0,76,0.00,,CLR,0.00,VWS V14.01,2013-07-04 04:16:00,
2013-07-03 21:21:00,61.7,54.4,30.10,SE,130,2.0,0.0,77,0.00,,CLR,0.00,VWS V14.01,2013-07-04 04:21:00,
2013-07-03 21:26:00,61.5,54.6,30.10,East,87,2.0,0.0,78,0.00,,CLR,0.00,VWS V14.01,2013-07-04 04:26:00,
2013-07-03 21:31:00,61.3,54.4,30.10,East,87,2.0,0.0,78,0.00,,CLR,0.00,VWS V14.01,2013-07-04 04:31:00,
2013-07-03 21:36:00,61.0,54.5,30.11,East,100,1.0,0.0,79,0.00,,CLR,0.00,VWS V14.01,2013-07-04 04:36:00,
2013-07-03 21:41:00,60.8,54.3,30.11,ESE,106,1.0,0.0,79,0.00,,CLR,0.00,VWS V14.01,2013-07-04 04:41:00,
2013-07-03 21:46:00,60.5,54.3,30.11,ESE,122,2.0,0.0,80,0.00,,CLR,0.00,VWS V14.01,2013-07-04 04:46:00,
2013-07-03 21:51:00,60.3,54.1,30.11,ESE,118,1.0,0.0,80,0.00,,CLR,0.00,VWS V14.01,2013-07-04 04:51:00,
2013-07-03 21:56:00,60.1,53.9,30.12,SSE,155,1.0,0.0,80,0.00,,CLR,0.00,VWS V14.01,2013-07-04 04:56:00,
2013-07-03 22:01:00,59.9,53.7,30.12,ESE,102,0.0,0.0,80,0.00,,CLR,0.00,VWS V14.01,2013-07-04 05:01:00,
2013-07-03 22:06:00,59.6,53.8,30.12,ESE,102,0.0,0.0,81,0.00,,CLR,0.00,VWS V14.01,2013-07-04 05:06:00,
2013-07-03 22:11:00,59.4,53.6,30.12,East,98,2.0,0.0,81,0.00,,CLR,0.00,VWS V14.01,2013-07-04 05:11:00,
2013-07-03 22:16:00,59.2,53.4,30.12,ESE,113,1.0,0.0,81,0.00,,CLR,0.00,VWS V14.01,2013-07-04 05:16:00,
2013-07-03 22:21:00,59.0,53.2,30.12,ESE,111,0.0,0.0,81,0.00,,CLR,0.00,VWS V14.01,2013-07-04 05:21:00,
2013-07-03 22:26:00,58.9,53.4,30.12,ESE,111,0.0,0.0,82,0.00,,CLR,0.00,VWS V14.01,2013-07-04 05:26:00,
2013-07-03 22:31:00,58.7,53.2,30.12,ESE,111,1.0,0.0,82,0.00,,CLR,0.00,VWS V14.01,2013-07-04 05:31:00,
2013-07-03 22:36:00,58.7,53.2,30.12,ESE,119,2.0,0.0,82,0.00,,CLR,0.00,VWS V14.01,2013-07-04 05:36:00,
2013-07-03 22:41:00,58.4,52.9,30.13,ESE,119,0.0,0.0,82,0.00,,CLR,0.00,VWS V14.01,2013-07-04 05:41:00,
2013-07-03 22:46:00,58.3,53.2,30.13,ESE,113,0.0,0.0,83,0.00,,CLR,0.00,VWS V14.01,2013-07-04 05:46:00,
2013-07-03 22:51:00,58.1,53.0,30.13,East,86,0.0,0.0,83,0.00,,CLR,0.00,VWS V14.01,2013-07-04 05:51:00,
2013-07-03 22:56:00,57.7,52.9,30.13,NE,40,0.0,0.0,84,0.00,,CLR,0.00,VWS V14.01,2013-07-04 05:56:00,
2013-07-03 23:01:00,57.6,52.8,30.13,East,99,2.0,0.0,84,0.00,,CLR,0.00,VWS V14.01,2013-07-04 06:01:00,
2013-07-03 23:06:00,57.7,52.9,30.13,ESE,119,0.0,0.0,84,0.00,,CLR,0.00,VWS V14.01,2013-07-04 06:06:00,
2013-07-03 23:11:00,57.6,52.8,30.13,ESE,109,1.0,0.0,84,0.00,,CLR,0.00,VWS V14.01,2013-07-04 06:11:00,
2013-07-03 23:16:00,57.5,52.7,30.13,ESE,111,1.0,0.0,84,0.00,,CLR,0.00,VWS V14.01,2013-07-04 06:16:00,
2013-07-03 23:21:00,57.4,52.6,30.13,East,98,0.0,0.0,84,0.00,,CLR,0.00,VWS V14.01,2013-07-04 06:21:00,
2013-07-03 23:26:00,57.3,52.5,30.13,ESE,109,0.0,0.0,84,0.00,,FEW022,0.00,VWS V14.01,2013-07-04 06:26:00,
2013-07-03 23:31:00,57.1,52.6,30.12,NE,35,0.0,0.0,85,0.00,,FEW022,0.00,VWS V14.01,2013-07-04 06:31:00,
2013-07-03 23:36:00,56.8,52.3,30.12,ESE,107,0.0,0.0,85,0.00,,FEW022,0.00,VWS V14.01,2013-07-04 06:36:00,
2013-07-03 23:41:00,56.6,52.2,30.12,East,82,0.0,0.0,85,0.00,,FEW022,0.00,VWS V14.01,2013-07-04 06:41:00,
2013-07-03 23:46:00,56.5,52.4,30.12,East,83,0.0,0.0,86,0.00,,CLR,0.00,VWS V14.01,2013-07-04 06:46:00,
2013-07-03 23:51:00,56.2,52.1,30.12,East,83,0.0,0.0,86,0.00,,CLR,0.00,VWS V14.01,2013-07-04 06:51:00,
2013-07-03 23:56:00,55.9,51.8,30.12,East,83,0.0,0.0,86,0.00,,CLR,0.00,VWS V14.01,2013-07-04 06:56:00,